Paducah, KY

1:09 AM CST on January 18, 2018 (GMT -0600)
Barkley Regional

Weather History for KPAH - March, 2014

Change the Weather History Date:

Monday, March 3, 2014

  Actual Average Record
Temperature  
Mean Temperature 19 °F 44 °F  
Max Temperature 25 °F 54 °F 77 °F (1976)
Min Temperature 13 °F 34 °F 6 °F (1943)
Degree Days  
Heating Degree Days 46 21  
Month to date heating degree days 96 63  
Since 1 July heating degree days 3751 3359  
Cooling Degree Days 0 0  
Month to date cooling degree days 0 0  
Year to date cooling degree days 0 0  
Moisture  
Dew Point 9 °F    
Average Humidity 72    
Maximum Humidity 84    
Minimum Humidity 60    
Precipitation  
Precipitation 0.23 in 0.11 in 2.90 in (2008)
Month to date precipitation 1.57 0.34  
Year to date precipitation 6.75 7.93  
Snow  
Snow 3.30 in 0.00 in 4.00 in (1965)
Month to date snowfall 5.4 0.1  
Since 1 July snowfall 18.3 8.6  
Snow Depth 4.00 in    
Sea Level Pressure  
Sea Level Pressure 30.35 in    
Wind  
Wind Speed 12 mph (NNE)    
Max Wind Speed 25 mph    
Max Gust Speed 32 mph    
Visibility 7 miles    
Events Snow    
T = Trace of Precipitation, MM = Missing Value Source: NWS Daily Summary

Daily Weather History Graph

Daily Weather History Graph

Search for Another Location

Airport or City:

Trip Planner

Search our weather history database for the weather conditions in past years. The results will help you decide how hot, cold, wet, or windy it might be!

Date:

Astronomy

Mar. 03, 2014 Rise Set
Actual Time 6:23 AM CST 5:51 PM CST
Civil Twilight 5:57 AM CST 6:17 PM CST
Nautical Twilight 5:27 AM CST 6:47 PM CST
Astronomical Twilight 4:57 AM CST 7:17 PM CST
Moon 7:35 AM CST (3/3) 8:48 PM CST (3/3)
Length of Visible Light 12h 20m
Length of Day
11h 27m
Waxing Crescent, 8% of the Moon is Illuminated
Mar 3
Waxing Crescent
Mar 8
First Quarter
Mar 16
Full
Mar 23
Last Quarter
Mar 30
New

Hourly Weather History & Observations

Time (CST) Temp. Windchill Dew Point Humidity Pressure Visibility Wind Dir Wind Speed Gust Speed Precip Events Conditions
12:01 AM 16.0 °F -1.3 °F 10.9 °F 81% 30.18 in 3.0 mi NNE 20.7 mph 32.2 mph 0.02 in   Overcast
12:16 AM 16.0 °F -0.4 °F 10.9 °F 81% 30.19 in 4.0 mi NNE 18.4 mph 27.6 mph 0.03 in   Overcast
12:53 AM 16.0 °F -2.5 °F 10.0 °F 77% 30.20 in 4.0 mi NNE 24.2 mph 29.9 mph 0.06 in Snow Light Snow
1:53 AM 15.1 °F -2.0 °F 9.0 °F 77% 30.21 in 8.0 mi NNE 19.6 mph 32.2 mph 0.01 in   Overcast
2:53 AM 15.1 °F -2.9 °F 9.0 °F 77% 30.23 in 7.0 mi North 21.9 mph 29.9 mph 0.00 in   Overcast
3:30 AM 14.0 °F -2.0 °F 9.0 °F 80% 30.22 in 2.5 mi North 16.1 mph 25.3 mph 0.00 in Snow Light Snow
3:53 AM 14.0 °F -2.0 °F 9.0 °F 80% 30.26 in 1.2 mi North 16.1 mph 23.0 mph 0.01 in Snow Light Snow
4:00 AM 14.0 °F -0.8 °F 9.0 °F 80% 30.25 in 1.2 mi North 13.8 mph 25.3 mph 0.01 in Snow Light Snow
4:53 AM 14.0 °F -2.0 °F 8.1 °F 77% 30.31 in 1.2 mi North 16.1 mph 26.5 mph 0.02 in Snow Light Snow
5:21 AM 12.9 °F -3.9 °F 8.1 °F 81% 30.30 in 1.8 mi North 17.3 mph - 0.01 in Snow Light Snow
5:25 AM 12.9 °F -4.4 °F 8.1 °F 81% 30.31 in 3.0 mi North 18.4 mph 25.3 mph 0.01 in Snow Light Snow
5:51 AM 12.2 °F -5.3 °F 8.6 °F 85% 30.31 in 1.8 mi North 18.4 mph 27.6 mph 0.01 in Snow Light Snow
5:53 AM 12.9 °F -2.8 °F 8.1 °F 81% 30.33 in 1.5 mi North 15.0 mph 27.6 mph 0.01 in Snow Light Snow
6:03 AM 12.9 °F -3.4 °F 8.1 °F 81% 30.32 in 0.5 mi North 16.1 mph 24.2 mph 0.01 in Snow Snow
6:18 AM 12.9 °F -2.8 °F 8.1 °F 81% 30.32 in 0.5 mi North 15.0 mph 23.0 mph 0.04 in   Haze
6:53 AM 12.9 °F -1.6 °F 8.1 °F 81% 30.36 in 0.5 mi North 12.7 mph - 0.10 in   Haze
7:23 AM 12.9 °F -2.8 °F 8.1 °F 81% 30.34 in 1.0 mi North 15.0 mph - 0.03 in   Haze
7:30 AM 12.9 °F -2.8 °F 7.0 °F 77% 30.35 in 2.0 mi North 15.0 mph - 0.03 in   Haze
7:38 AM 14.0 °F -1.4 °F 7.0 °F 74% 30.36 in 10.0 mi North 15.0 mph 21.9 mph 0.03 in   Overcast
7:49 AM 14.0 °F -0.2 °F 6.8 °F 73% 30.36 in 10.0 mi North 12.7 mph - 0.03 in   Overcast
7:53 AM 14.0 °F -2.0 °F 7.0 °F 74% 30.38 in 10.0 mi North 16.1 mph - 0.03 in   Overcast
8:41 AM 14.0 °F -0.8 °F 7.0 °F 74% 30.36 in 10.0 mi North 13.8 mph 23.0 mph N/A   Mostly Cloudy
8:53 AM 14.0 °F -2.5 °F 7.0 °F 74% 30.38 in 10.0 mi North 17.3 mph 27.6 mph N/A   Mostly Cloudy
9:11 AM 14.0 °F -1.4 °F 7.0 °F 74% 30.36 in 10.0 mi North 15.0 mph - N/A   Mostly Cloudy
9:53 AM 16.0 °F 1.1 °F 8.1 °F 71% 30.41 in 10.0 mi North 15.0 mph 24.2 mph N/A   Partly Cloudy
10:17 AM 17.1 °F 1.5 °F 9.0 °F 71% 30.39 in 10.0 mi NNE 17.3 mph - N/A   Mostly Cloudy
10:53 AM 19.0 °F 4.5 °F 10.9 °F 71% 30.41 in 10.0 mi North 16.1 mph - N/A   Mostly Cloudy
11:06 AM 19.0 °F 4.5 °F 10.9 °F 71% 30.39 in 10.0 mi North 16.1 mph - 0.00 in Snow Light Snow
11:15 AM 19.0 °F 6.1 °F 10.9 °F 71% 30.39 in 9.0 mi North 12.7 mph - 0.00 in   Mostly Cloudy
11:53 AM 21.0 °F 9.9 °F 12.0 °F 68% 30.41 in 10.0 mi North 10.4 mph - 0.00 in   Mostly Cloudy
12:45 PM 23.0 °F 10.6 °F 12.9 °F 65% 30.38 in 10.0 mi NNE 13.8 mph - 0.00 in   Scattered Clouds
12:53 PM 23.0 °F 11.1 °F 12.0 °F 63% 30.40 in 10.0 mi NNE 12.7 mph - 0.00 in   Partly Cloudy
1:53 PM 23.0 °F 12.4 °F 12.9 °F 65% 30.40 in 10.0 mi NNE 10.4 mph - 0.00 in   Clear
2:53 PM 25.0 °F 17.1 °F 14.0 °F 63% 30.40 in 10.0 mi NNE 6.9 mph - 0.00 in   Clear
3:53 PM 25.0 °F 14.2 °F 12.9 °F 60% 30.40 in 10.0 mi NNE 11.5 mph - 0.00 in   Clear
4:53 PM 24.1 °F 12.5 °F 12.0 °F 60% 30.42 in 10.0 mi NE 12.7 mph - N/A   Clear
5:53 PM 19.9 °F 9.3 °F 10.9 °F 68% 30.41 in 10.0 mi NNE 9.2 mph - N/A   Clear
6:53 PM 19.0 °F 7.5 °F 10.0 °F 68% 30.40 in 10.0 mi NE 10.4 mph - N/A   Clear
7:53 PM 17.1 °F 7.6 °F 9.0 °F 71% 30.40 in 10.0 mi NNE 6.9 mph - N/A   Clear
8:53 PM 17.1 °F 11.7 °F 8.1 °F 68% 30.40 in 10.0 mi NNE 3.5 mph - N/A   Clear
9:53 PM 15.1 °F 5.2 °F 7.0 °F 70% 30.39 in 10.0 mi NNE 6.9 mph - N/A   Clear
10:53 PM 15.1 °F - 8.1 °F 74% 30.40 in 10.0 mi Calm Calm - N/A   Clear
11:53 PM 14.0 °F - 8.1 °F 77% 30.38 in 10.0 mi Calm Calm - N/A   Clear